Weather History for KSDA - October, 2012

Change the Weather History Date:

Tuesday, October 9, 2012

  Actual Average Record
Temperature  
Mean Temperature 48 °F -  
Max Temperature 62 °F 66 °F 88 °F (1980)
Min Temperature 33 °F 42 °F 24 °F (2000)
Degree Days  
Heating Degree Days 18    
Moisture  
Dew Point 31 °F    
Average Humidity 44    
Maximum Humidity 70    
Minimum Humidity 18    
Precipitation  
Precipitation 0.00 in - - ()
Sea Level Pressure  
Sea Level Pressure 29.96 in    
Wind  
Wind Speed 10 mph (West)    
Max Wind Speed 20 mph    
Max Gust Speed 25 mph    
Visibility 10 miles    
Events      
Averages and records for this station are not official NWS values.
T = Trace of Precipitation, MM = Missing Value Source: NWS Daily Summary

Daily Weather History Graph

Daily Weather History Graph

Search for Another Location

Airport or City:

Trip Planner

Search our weather history database for the weather conditions in past years. The results will help you decide how hot, cold, wet, or windy it might be!

Date:

Astronomy

Oct. 09, 2012 Rise Set
Actual Time 7:26 AM CDT 6:49 PM CDT
Civil Twilight 6:59 AM CDT 7:17 PM CDT
Nautical Twilight 6:27 AM CDT 7:48 PM CDT
Astronomical Twilight 5:56 AM CDT 8:20 PM CDT
Moon 1:02 AM CDT (10/9) 3:19 PM CDT (10/9)
Length of Visible Light 12h 17m
Length of Day
11h 22m
Last Quarter, 36% of the Moon is Illuminated
Oct 9
Last Quarter
Oct 15
New
Oct 21
First Quarter
Oct 29
Full
Nov 6
Last Quarter

Hourly Weather History & Observations

Time (CDT) Temp. Windchill Dew Point Humidity Pressure Visibility Wind Dir Wind Speed Gust Speed Precip Events Conditions
12:15 AM 57.2 °F - 32.0 °F 38% 29.85 in 10.0 mi SSW 13.8 mph 21.9 mph N/A   Scattered Clouds
12:35 AM 57.2 °F - 33.8 °F 41% 29.85 in 10.0 mi SSW 12.7 mph 19.6 mph N/A   Scattered Clouds
12:55 AM 57.2 °F - 33.8 °F 41% 29.85 in 10.0 mi SSW 12.7 mph - N/A   Scattered Clouds
1:15 AM 57.2 °F - 33.8 °F 41% 29.85 in 10.0 mi SSW 12.7 mph - N/A   Scattered Clouds
1:55 AM 55.4 °F - 33.8 °F 44% 29.88 in 10.0 mi West 6.9 mph - N/A   Scattered Clouds
2:15 AM 55.4 °F - 35.6 °F 47% 29.88 in 10.0 mi SW 6.9 mph - N/A   Scattered Clouds
3:15 AM 57.2 °F - 35.6 °F 44% 29.87 in 10.0 mi SSW 9.2 mph - N/A   Scattered Clouds
3:35 AM 57.2 °F - 35.6 °F 44% 29.86 in 10.0 mi SSW 11.5 mph - N/A   Scattered Clouds
3:55 AM 57.2 °F - 35.6 °F 44% 29.85 in 10.0 mi SSW 11.5 mph - N/A   Scattered Clouds
4:15 AM 55.4 °F - 35.6 °F 47% 29.86 in 10.0 mi SSW 11.5 mph - N/A   Scattered Clouds
4:35 AM 55.4 °F - 35.6 °F 47% 29.85 in 10.0 mi SSW 11.5 mph - N/A   Scattered Clouds
4:55 AM 55.4 °F - 35.6 °F 47% 29.85 in 10.0 mi South 11.5 mph - N/A   Clear
5:15 AM 55.4 °F - 35.6 °F 47% 29.85 in 10.0 mi South 11.5 mph - N/A   Scattered Clouds
5:35 AM 55.4 °F - 35.6 °F 47% 29.85 in 10.0 mi South 10.4 mph - N/A   Scattered Clouds
5:55 AM 55.4 °F - 35.6 °F 47% 29.85 in 10.0 mi SSW 11.5 mph - N/A   Scattered Clouds
6:15 AM 55.4 °F - 35.6 °F 47% 29.85 in 10.0 mi SSW 9.2 mph - N/A   Scattered Clouds
6:35 AM 55.4 °F - 35.6 °F 47% 29.84 in 10.0 mi SSW 13.8 mph - N/A   Scattered Clouds
6:55 AM 55.4 °F - 35.6 °F 47% 29.86 in 10.0 mi SW 9.2 mph - N/A   Scattered Clouds
7:15 AM 53.6 °F - 35.6 °F 51% 29.87 in 10.0 mi SW 6.9 mph - N/A   Scattered Clouds
7:35 AM 51.8 °F - 35.6 °F 54% 29.87 in 10.0 mi SW 4.6 mph - N/A   Scattered Clouds
7:55 AM 51.8 °F - 37.4 °F 58% 29.88 in 10.0 mi SW 4.6 mph - N/A   Clear
8:15 AM 51.8 °F - 37.4 °F 58% 29.89 in 10.0 mi WSW 4.6 mph - N/A   Clear
8:35 AM 53.6 °F - 37.4 °F 54% 29.89 in 10.0 mi SW 5.8 mph - N/A   Clear
8:55 AM 53.6 °F - 37.4 °F 54% 29.89 in 10.0 mi SW 5.8 mph - N/A   Clear
9:15 AM 55.4 °F - 37.4 °F 51% 29.90 in 10.0 mi WSW 6.9 mph - N/A   Clear
9:35 AM 55.4 °F - 37.4 °F 51% 29.90 in 10.0 mi WSW 6.9 mph - N/A   Clear
9:55 AM 55.4 °F - 37.4 °F 51% 29.91 in 10.0 mi West 9.2 mph - N/A   Clear
10:15 AM 57.2 °F - 37.4 °F 48% 29.91 in 10.0 mi WSW 4.6 mph - N/A   Clear
10:35 AM 59.0 °F - 37.4 °F 45% 29.92 in 10.0 mi NNW 6.9 mph - N/A   Clear
10:55 AM 60.8 °F - 39.2 °F 45% 29.91 in 10.0 mi North 15.0 mph 20.7 mph N/A   Clear
11:15 AM 60.8 °F - 41.0 °F 48% 29.93 in 10.0 mi North 13.8 mph - N/A   Clear
11:35 AM 60.8 °F - 41.0 °F 48% 29.93 in 10.0 mi North 15.0 mph 20.7 mph N/A   Scattered Clouds
11:55 AM 62.6 °F - 41.0 °F 45% 29.94 in 10.0 mi North 17.3 mph 23.0 mph N/A   Mostly Cloudy
12:15 PM 60.8 °F - 41.0 °F 48% 29.96 in 10.0 mi North 18.4 mph 25.3 mph N/A   Overcast
12:35 PM 60.8 °F - 41.0 °F 48% 29.96 in 10.0 mi North 16.1 mph 21.9 mph N/A   Mostly Cloudy
12:55 PM 60.8 °F - 39.2 °F 45% 29.96 in 10.0 mi NNW 16.1 mph 21.9 mph N/A   Mostly Cloudy
1:15 PM 60.8 °F - 39.2 °F 45% 29.96 in 10.0 mi North 18.4 mph 25.3 mph N/A   Mostly Cloudy
1:35 PM 60.8 °F - 37.4 °F 42% 29.97 in 10.0 mi North 19.6 mph 24.2 mph N/A   Scattered Clouds
1:55 PM 60.8 °F - 37.4 °F 42% 29.97 in 10.0 mi North 16.1 mph 20.7 mph N/A   Clear
2:15 PM 60.8 °F - 35.6 °F 39% 29.97 in 10.0 mi North 15.0 mph 23.0 mph N/A   Clear
2:35 PM 62.6 °F - 33.8 °F 34% 29.97 in 10.0 mi North 13.8 mph - N/A   Scattered Clouds
2:55 PM 62.6 °F - 26.6 °F 26% 29.98 in 10.0 mi NNW 15.0 mph 21.9 mph N/A   Clear
3:15 PM 60.8 °F - 28.4 °F 29% 29.99 in 10.0 mi North 11.5 mph 20.7 mph N/A   Clear
3:35 PM 59.0 °F - 24.8 °F 27% 30.00 in 10.0 mi NNW 11.5 mph 17.3 mph N/A   Scattered Clouds
3:55 PM 59.0 °F - 17.6 °F 20% 30.00 in 10.0 mi North 13.8 mph 19.6 mph N/A   Scattered Clouds
4:15 PM 59.0 °F - 17.6 °F 20% 30.01 in 10.0 mi North 9.2 mph - N/A   Scattered Clouds
4:35 PM 57.2 °F - 15.8 °F 20% 30.02 in 10.0 mi NNW 11.5 mph 20.7 mph N/A   Clear
4:55 PM 55.4 °F - 12.2 °F 18% 30.03 in 10.0 mi NNW 11.5 mph 18.4 mph N/A   Scattered Clouds
5:15 PM 55.4 °F - 15.8 °F 21% 30.02 in 10.0 mi North 10.4 mph 16.1 mph N/A   Scattered Clouds
5:35 PM 55.4 °F - 17.6 °F 23% 30.03 in 10.0 mi NNW 15.0 mph 21.9 mph N/A   Scattered Clouds
5:55 PM 55.4 °F - 17.6 °F 23% 30.04 in 10.0 mi North 6.9 mph - N/A   Scattered Clouds
6:15 PM 55.4 °F - 17.6 °F 23% 30.04 in 10.0 mi North 6.9 mph - N/A   Clear
6:35 PM 51.8 °F - 19.4 °F 28% 30.04 in 10.0 mi NNW 3.5 mph - N/A   Clear
6:55 PM 51.8 °F - 17.6 °F 26% 30.04 in 10.0 mi Calm Calm - N/A   Clear
7:15 PM 48.2 °F - 19.4 °F 32% 30.05 in 10.0 mi Calm Calm - N/A   Scattered Clouds
7:35 PM 44.6 °F - 24.8 °F 46% 30.05 in 10.0 mi Calm Calm - N/A   Scattered Clouds
7:55 PM 44.6 °F - 24.8 °F 46% 30.06 in 10.0 mi Calm Calm - N/A   Scattered Clouds
8:15 PM 42.8 °F - 24.8 °F 49% 30.07 in 10.0 mi Calm Calm - N/A   Scattered Clouds
8:35 PM 42.8 °F - 24.8 °F 49% 30.08 in 10.0 mi Calm Calm - N/A   Scattered Clouds
8:55 PM 41.0 °F 39.0 °F 24.8 °F 53% 30.09 in 10.0 mi WNW 3.5 mph - N/A   Scattered Clouds
9:15 PM 39.2 °F - 26.6 °F 61% 30.10 in 10.0 mi Calm Calm - N/A   Scattered Clouds
9:35 PM 39.2 °F - 24.8 °F 56% 30.11 in 10.0 mi Calm Calm - N/A   Scattered Clouds
9:55 PM 39.2 °F - 24.8 °F 56% 30.12 in 10.0 mi Calm Calm - N/A   Scattered Clouds
10:15 PM 37.4 °F - 24.8 °F 60% 30.13 in 10.0 mi Calm Calm - N/A   Scattered Clouds
10:35 PM 37.4 °F - 24.8 °F 60% 30.14 in 10.0 mi Calm Calm - N/A   Scattered Clouds
10:55 PM 35.6 °F - 24.8 °F 65% 30.15 in 10.0 mi Calm Calm - N/A   Scattered Clouds
11:15 PM 33.8 °F - 24.8 °F 70% 30.16 in 10.0 mi Calm Calm - N/A   Scattered Clouds
11:35 PM 33.8 °F - 24.8 °F 70% 30.16 in 10.0 mi Calm Calm - N/A   Scattered Clouds
11:55 PM 33.8 °F - 24.8 °F 70% 30.16 in 10.0 mi Calm Calm - N/A   Scattered Clouds